FW0954 Weather Reports


time (UTC)temp
C
wind
direction
speed
KPH
gust
KPH
rain 1hr
cm
rain 24hr
cm
rain mn
cm
humidity
%
barometer
mb
20260905094003 25 0 0.0 0.0 0.00 0.00 0.00 86 1013.8
20260905093003 25 0 0.0 0.0 0.00 0.00 0.00 85 1013.7
20260905092503 25 0 0.0 0.0 0.00 0.00 0.00 85 1013.7
20260905092003 25 0 0.0 0.0 0.00 0.00 0.00 84 1013.7
20260905091503 25 0 0.0 0.0 0.00 0.00 0.00 84 1013.6
20260905091003 25 0 0.0 0.0 0.00 0.00 0.00 84 1013.6
20260905090503 25 0 0.0 0.0 0.00 0.00 0.00 83 1013.7
20260905085503 25 0 0.0 0.0 0.00 0.00 0.00 83 1013.6
20260905084503 26 0 0.0 0.0 0.00 0.00 0.00 82 1013.4
20260905084003 26 0 0.0 0.0 0.00 0.00 0.00 82 1013.4
20260905083503 26 0 0.0 0.0 0.00 0.00 0.00 82 1013.2
20260905083003 26 0 0.0 0.0 0.00 0.00 0.00 81 1013.2
20260905082503 26 0 0.0 0.0 0.00 0.00 0.00 81 1013.1
20260905082003 26 0 0.0 0.0 0.00 0.00 0.00 80 1013.1
20260905081503 26 0 0.0 0.0 0.00 0.00 0.00 80 1013.1
20260905081003 26 210 0.0 1.6 0.00 0.00 0.00 80 1013.1
20260905080503 26 210 0.0 1.6 0.00 0.00 0.00 81 1013.1
20260905080004 26 0 0.0 0.0 0.00 0.00 0.00 80 1013.1
20260905075004 26 0 0.0 0.0 0.00 0.00 0.00 80 1013.3
20260905074504 26 0 0.0 0.0 0.00 0.00 0.00 80 1013.2
20260905074004 26 209 0.0 1.6 0.00 0.00 0.00 80 1013.4
20260905073503 26 209 0.0 1.6 0.00 0.00 0.00 79 1013.5
20260905073003 27 0 0.0 0.0 0.00 0.00 0.00 79 1013.6
20260905072504 27 0 0.0 0.0 0.00 0.00 0.00 79 1013.7
20260905072004 27 0 0.0 0.0 0.00 0.00 0.00 79 1013.7
20260905071504 27 0 0.0 0.0 0.00 0.00 0.00 79 1013.8
20260905071003 27 0 0.0 0.0 0.00 0.00 0.00 78 1013.8
20260905070003 27 0 0.0 0.0 0.00 0.00 0.00 78 1013.8
20260905065503 27 0 0.0 0.0 0.00 0.00 0.00 77 1013.9
20260905065003 27 0 0.0 0.0 0.00 0.00 0.00 77 1013.9
20260905063003 28 0 0.0 0.0 0.00 0.00 0.00 75 1013.9
20260905062504 28 0 0.0 0.0 0.00 0.00 0.00 74 1014.0
20260905062004 28 0 0.0 0.0 0.00 0.00 0.00 74 1013.9
20260905061504 28 0 0.0 0.0 0.00 0.00 0.00 74 1013.9
20260905061004 28 0 0.0 0.0 0.00 0.00 0.00 74 1013.9
20260905060504 28 209 0.0 3.2 0.00 0.00 0.00 73 1013.8
20260905060001 28 209 0.0 3.2 0.00 0.00 0.00 73 1013.8
20260905055001 28 209 0.0 1.6 0.00 0.00 0.00 73 1013.7
20260905054501 28 202 0.0 3.2 0.00 0.00 0.00 72 1013.6
20260905054001 28 200 0.0 4.8 0.00 0.00 0.00 72 1013.4
20260905053501 28 201 0.0 4.8 0.00 0.00 0.00 72 1013.5
20260905053002 29 203 0.0 3.2 0.00 0.00 0.00 72 1013.4
20260905052501 29 194 1.6 3.2 0.00 0.00 0.00 72 1013.4
20260905052001 29 179 0.0 3.2 0.00 0.00 0.00 72 1013.4
20260905051501 29 189 0.0 4.8 0.00 0.00 0.00 71 1013.3
20260905051002 29 203 0.0 4.8 0.00 0.00 0.00 71 1013.3
20260905050502 29 206 1.6 4.8 0.00 0.00 0.00 71 1013.3
20260905050002 29 204 1.6 4.8 0.00 0.00 0.00 71 1013.2
20260905045501 29 199 1.6 6.4 0.00 0.00 0.00 71 1013.3
20260905045001 29 189 0.0 6.4 0.00 0.00 0.00 71 1013.3
20260905044503 30 182 0.0 4.8 0.00 0.00 0.00 70 1013.4
20260905044002 30 177 0.0 4.8 0.00 0.00 0.00 70 1013.4
20260905043001 30 181 1.6 6.4 0.00 0.00 0.00 70 1013.3
20260905042501 30 183 1.6 6.4 0.00 0.00 0.00 69 1013.4
20260905042001 30 179 0.0 4.8 0.00 0.00 0.00 69 1013.4
20260905041502 30 183 1.6 4.8 0.00 0.00 0.00 69 1013.5
20260905040501 30 184 1.6 6.4 0.00 0.00 0.00 68 1013.5
20260905040001 30 190 1.6 6.4 0.00 0.00 0.00 68 1013.5
20260905035501 30 188 0.0 4.8 0.00 0.00 0.00 68 1013.5
20260905035002 30 173 0.0 3.2 0.00 0.00 0.00 67 1013.6
20260905034501 30 172 0.0 3.2 0.00 0.00 0.00 67 1013.5
20260905033501 30 165 0.0 3.2 0.00 0.00 0.00 66 1013.5
20260905033002 30 174 1.6 4.8 0.00 0.00 0.00 66 1013.5
20260905032502 30 182 1.6 4.8 0.00 0.00 0.00 65 1013.5
20260905032001 30 183 0.0 3.2 0.00 0.00 0.00 65 1013.4
20260905031501 30 177 0.0 3.2 0.00 0.00 0.00 65 1013.5
20260905031001 31 172 0.0 3.2 0.00 0.00 0.00 64 1013.4
20260905030501 31 170 0.0 1.6 0.00 0.00 0.00 64 1013.4
20260905025501 31 171 1.6 4.8 0.00 0.00 0.00 63 1013.3
20260905025002 31 170 1.6 4.8 0.00 0.00 0.00 63 1013.2
20260905024501 31 173 1.6 4.8 0.00 0.00 0.00 63 1013.2
20260905024002 31 173 0.0 4.8 0.00 0.00 0.00 62 1013.0
20260905023501 31 168 1.6 4.8 0.00 0.00 0.00 62 1013.0
20260905023002 31 165 1.6 4.8 0.00 0.00 0.00 62 1012.9
20260905022501 31 166 0.0 4.8 0.00 0.00 0.00 63 1012.8
20260905022002 31 164 0.0 3.2 0.00 0.00 0.00 62 1012.7
20260905021502 31 162 0.0 3.2 0.00 0.00 0.00 62 1012.5
20260905021001 32 168 0.0 3.2 0.00 0.00 0.00 61 1012.5
20260905020502 32 166 1.6 4.8 0.00 0.00 0.00 61 1012.5
20260905020001 32 168 1.6 4.8 0.00 0.00 0.00 61 1012.3
20260905015502 32 166 1.6 4.8 0.00 0.00 0.00 60 1012.2
20260905015001 32 164 1.6 4.8 0.00 0.00 0.00 60 1012.2
20260905014502 32 165 1.6 4.8 0.00 0.00 0.00 60 1012.1
20260905014001 32 163 1.6 4.8 0.00 0.00 0.00 60 1012.1
20260905013501 32 162 1.6 4.8 0.00 0.00 0.00 60 1012.0
20260905013001 32 165 1.6 4.8 0.00 0.00 0.00 59 1012.0
20260905012501 32 168 1.6 8.0 0.00 0.00 0.00 59 1011.9
20260905011501 32 166 1.6 6.4 0.00 0.00 0.00 58 1011.9
20260905010501 33 162 1.6 6.4 0.00 0.00 0.00 59 1011.8
20260905010002 33 162 1.6 8.0 0.00 0.00 0.00 58 1011.8
20260905005502 33 161 1.6 8.0 0.00 0.00 0.00 57 1011.8
20260905005002 33 153 1.6 8.0 0.00 0.00 0.00 57 1011.6
20260905003502 34 156 1.6 6.4 0.00 0.00 0.00 56 1011.5
20260905003002 34 155 1.6 8.0 0.00 0.00 0.00 55 1011.6
20260905002502 34 159 1.6 8.0 0.00 0.00 0.00 55 1011.5
20260905002002 35 157 1.6 9.7 0.00 0.00 0.00 53 1011.4
20260905001502 35 156 1.6 9.7 0.00 0.00 0.00 53 1011.3
20260905001002 35 152 1.6 6.4 0.00 0.00 0.00 53 1011.5
20260905000501 36 154 1.6 9.7 0.00 0.00 0.00 53 1011.5
20260905000002 36 161 1.6 9.7 0.00 0.00 0.00 53 1011.4
20260904235502 36 157 3.2 8.0 0.00 0.00 0.00 51 1011.4
20260904235001 36 155 1.6 9.7 0.00 0.00 0.00 52 1011.4
20260904234502 36 156 1.6 9.7 0.00 0.00 0.00 51 1011.4
20260904233002 36 151 1.6 8.0 0.00 0.00 0.00 51 1011.2
20260904232502 36 154 1.6 9.7 0.00 0.00 0.00 52 1011.2
20260904232002 36 155 3.2 9.7 0.00 0.00 0.00 52 1011.2
20260904231501 36 151 1.6 9.7 0.00 0.00 0.00 53 1011.3
20260904231001 36 149 0.0 6.4 0.00 0.00 0.00 52 1011.3
20260904230501 36 136 1.6 9.7 0.00 0.00 0.00 52 1011.3
20260904230002 36 148 3.2 9.7 0.00 0.00 0.00 52 1011.3
20260904225502 36 160 3.2 9.7 0.00 0.00 0.00 52 1011.2
20260904225002 36 157 1.6 9.7 0.00 0.00 0.00 51 1011.4
20260904224501 36 154 1.6 9.7 0.00 0.00 0.00 52 1011.5
20260904224001 36 154 3.2 11.3 0.00 0.00 0.00 52 1011.4
20260904223501 36 147 3.2 11.3 0.00 0.00 0.00 52 1011.4
20260904223002 36 143 1.6 9.7 0.00 0.00 0.00 52 1011.4
20260904222002 37 151 3.2 11.3 0.00 0.00 0.00 49 1011.4
20260904221502 37 154 3.2 11.3 0.00 0.00 0.00 50 1011.4
20260904221002 37 145 3.2 9.7 0.00 0.00 0.00 50 1011.4
20260904220502 37 108 3.2 12.9 0.00 0.00 0.00 51 1011.4
20260904220002 37 90 3.2 12.9 0.00 0.00 0.00 51 1011.5
20260904215502 37 105 1.6 8.0 0.00 0.00 0.00 52 1011.5
20260904215002 37 134 1.6 8.0 0.00 0.00 0.00 53 1011.6
20260904214502 37 137 3.2 9.7 0.00 0.00 0.00 51 1011.7
20260904214002 37 130 1.6 9.7 0.00 0.00 0.00 51 1011.6
20260904213502 37 99 1.6 6.4 0.00 0.00 0.00 52 1011.7
20260904212501 37 141 3.2 9.7 0.00 0.00 0.00 51 1011.8
20260904212001 37 120 3.2 9.7 0.00 0.00 0.00 51 1011.9
20260904211502 37 137 3.2 9.7 0.00 0.00 0.00 51 1011.9
20260904211002 37 159 3.2 12.9 0.00 0.00 0.00 51 1011.9
20260904210502 37 142 4.8 12.9 0.00 0.00 0.00 51 1012.0
20260904205501 38 156 3.2 12.9 0.00 0.00 0.00 49 1012.2
20260904205002 38 162 3.2 12.9 0.00 0.00 0.00 49 1012.1
20260904204502 38 156 3.2 9.7 0.00 0.00 0.00 49 1012.2
20260904204002 37 158 3.2 12.9 0.00 0.00 0.00 49 1012.2
20260904203002 37 187 3.2 12.9 0.00 0.00 0.00 48 1012.4
20260904202002 37 183 3.2 9.7 0.00 0.00 0.00 49 1012.5
20260904201502 37 177 3.2 9.7 0.00 0.00 0.00 49 1012.6
20260904201002 37 176 4.8 11.3 0.00 0.00 0.00 50 1012.6
20260904200502 37 175 4.8 11.3 0.00 0.00 0.00 49 1012.7
20260904200002 37 182 4.8 16.1 0.00 0.00 0.00 50 1012.7
20260904195502 37 181 4.8 16.1 0.00 0.00 0.00 49 1012.9
20260904195002 36 184 3.2 11.3 0.00 0.00 0.00 51 1013.0
20260904194502 36 181 3.2 12.9 0.00 0.00 0.00 50 1013.0
20260904194002 36 169 3.2 12.9 0.00 0.00 0.00 51 1013.2
20260904193502 36 170 3.2 12.9 0.00 0.00 0.00 51 1013.2
20260904192002 37 176 1.6 11.3 0.00 0.00 0.00 51 1013.5
20260904191502 37 187 1.6 11.3 0.00 0.00 0.00 50 1013.3
20260904190503 37 168 4.8 11.3 0.00 0.00 0.00 50 1013.6
20260904190002 37 171 3.2 12.9 0.00 0.00 0.00 52 1013.5
20260904185502 36 176 4.8 14.5 0.00 0.00 0.00 52 1013.6
20260904185003 36 179 4.8 16.1 0.00 0.00 0.00 51 1013.7
20260904184002 36 211 3.2 11.3 0.00 0.00 0.00 54 1013.7
20260904183502 36 183 3.2 11.3 0.00 0.00 0.00 54 1013.9
20260904183003 36 194 4.8 16.1 0.00 0.00 0.00 55 1014.1
20260904182503 36 190 6.4 16.1 0.00 0.00 0.00 55 1014.1
20260904182003 36 186 3.2 16.1 0.00 0.00 0.00 56 1014.2
20260904181502 35 196 3.2 12.9 0.00 0.00 0.00 57 1014.2
20260904181003 35 184 4.8 22.5 0.00 0.00 0.00 57 1014.3
20260904180502 35 177 4.8 22.5 0.00 0.00 0.00 56 1014.4
20260904180002 35 187 3.2 12.9 0.00 0.00 0.00 56 1014.4
20260904175502 35 214 4.8 12.9 0.00 0.00 0.00 56 1014.4
20260904175003 35 204 4.8 14.5 0.00 0.00 0.00 56 1014.6
20260904174003 35 251 3.2 9.7 0.00 0.00 0.00 58 1014.7
20260904173502 35 223 3.2 8.0 0.00 0.00 0.00 58 1014.7
20260904173002 35 196 3.2 9.7 0.00 0.00 0.00 57 1014.8
20260904172502 35 182 3.2 11.3 0.00 0.00 0.00 57 1014.9
20260904172002 35 161 3.2 11.3 0.00 0.00 0.00 58 1014.9
20260904171503 34 164 3.2 9.7 0.00 0.00 0.00 59 1014.9
20260904170002 34 201 4.8 12.9 0.00 0.00 0.00 58 1015.0
20260904164502 33 194 3.2 14.5 0.00 0.00 0.00 61 1015.2
20260904163502 33 199 3.2 11.3 0.00 0.00 0.00 66 1015.2
20260904163002 33 202 4.8 12.9 0.00 0.00 0.00 65 1015.2
20260904162003 32 196 3.2 9.7 0.00 0.00 0.00 67 1015.3
20260904161503 32 182 3.2 11.3 0.00 0.00 0.00 69 1015.1
20260904161002 32 197 4.8 11.3 0.00 0.00 0.00 67 1015.2
20260904160503 32 222 3.2 11.3 0.00 0.00 0.00 70 1015.2
20260904160002 32 206 3.2 11.3 0.00 0.00 0.00 69 1015.4
20260904155002 31 173 3.2 11.3 0.00 0.00 0.00 72 1015.4
20260904154503 31 182 3.2 11.3 0.00 0.00 0.00 73 1015.2
20260904154003 31 182 3.2 11.3 0.00 0.00 0.00 72 1015.2
20260904153002 31 193 3.2 12.9 0.00 0.00 0.00 73 1015.2
20260904152002 31 184 4.8 16.1 0.00 0.00 0.00 75 1015.0
20260904151503 30 176 3.2 14.5 0.00 0.00 0.00 76 1015.0
20260904151002 30 174 3.2 12.9 0.00 0.00 0.00 79 1015.0
20260904150502 30 184 4.8 12.9 0.00 0.00 0.00 78 1015.0
20260904150003 30 188 4.8 11.3 0.00 0.00 0.00 79 1015.0
20260904145502 30 200 3.2 14.5 0.00 0.00 0.00 80 1015.1
20260904145003 30 197 3.2 14.5 0.00 0.00 0.00 82 1015.1
20260904144002 28 178 4.8 11.3 0.00 0.00 0.00 84 1015.1
20260904143503 28 181 4.8 12.9 0.00 0.00 0.00 84 1015.2
20260904142503 28 187 4.8 12.9 0.00 0.00 0.00 85 1015.2
20260904141503 28 183 4.8 14.5 0.00 0.00 0.00 86 1015.1
20260904141002 28 172 4.8 14.5 0.00 0.00 0.00 87 1015.0
20260904140503 27 173 4.8 12.9 0.00 0.00 0.00 87 1015.0
20260904140003 27 176 3.2 12.9 0.00 0.00 0.00 89 1015.1
20260904135503 27 170 3.2 12.9 0.00 0.00 0.00 90 1015.0
20260904135002 27 172 3.2 11.3 0.00 0.00 0.00 90 1015.0
20260904134503 27 183 1.6 8.0 0.00 0.00 0.00 91 1014.9
20260904133003 26 164 1.6 8.0 0.00 0.00 0.00 93 1014.7
20260904132502 26 165 1.6 6.4 0.00 0.00 0.00 94 1014.7
20260904132003 25 166 1.6 8.0 0.00 0.00 0.00 94 1014.7
20260904131502 25 166 1.6 11.3 0.00 0.00 0.00 94 1014.6
20260904131003 25 168 1.6 11.3 0.00 0.00 0.00 94 1014.6
20260904130502 25 172 1.6 9.7 0.00 0.00 0.00 94 1014.5
20260904130003 25 170 1.6 6.4 0.00 0.00 0.00 94 1014.5
20260904125503 25 168 1.6 8.0 0.00 0.00 0.00 94 1014.5
20260904125003 25 170 1.6 8.0 0.00 0.00 0.00 94 1014.5
20260904124503 25 175 1.6 8.0 0.00 0.00 0.00 95 1014.4
20260904124002 25 176 1.6 6.4 0.00 0.00 0.00 95 1014.3
20260904123503 25 170 0.0 4.8 0.00 0.00 0.00 95 1014.4
20260904123002 25 167 0.0 4.8 0.00 0.00 0.00 95 1014.5
20260904122503 25 173 1.6 4.8 0.00 0.00 0.00 95 1014.3
20260904121003 25 164 1.6 4.8 0.00 0.00 0.00 95 1014.3
20260904120003 25 166 1.6 6.4 0.00 0.00 0.00 94 1014.3
20260904115502 25 170 1.6 6.4 0.00 0.00 0.00 94 1014.2
20260904115003 25 165 1.6 6.4 0.00 0.00 0.00 94 1014.2
20260904114503 25 162 1.6 6.4 0.00 0.00 0.00 94 1014.0
20260904114003 25 166 1.6 8.0 0.00 0.00 0.00 94 1014.1
20260904113503 25 174 1.6 8.0 0.00 0.00 0.00 94 1014.0
20260904113003 25 166 1.6 4.8 0.00 0.00 0.00 94 1014.0
20260904112503 25 157 0.0 6.4 0.00 0.00 0.00 94 1013.9
20260904112003 25 165 1.6 8.0 0.00 0.00 0.00 94 1013.8
20260904111503 24 165 1.6 8.0 0.00 0.00 0.00 94 1013.8
20260904111003 24 159 0.0 6.4 0.00 0.00 0.00 93 1013.9
20260904110503 24 163 1.6 6.4 0.00 0.00 0.00 93 1013.9
20260904110003 25 167 1.6 8.0 0.00 0.00 0.00 93 1013.9
20260904105503 24 166 1.6 8.0 0.00 0.00 0.00 93 1013.9
20260904105003 24 163 1.6 4.8 0.00 0.00 0.00 93 1013.9
20260904104503 24 165 1.6 4.8 0.00 0.00 0.00 93 1013.9
20260904104003 24 167 0.0 4.8 0.00 0.00 0.00 93 1013.8
20260904102503 24 169 0.0 3.2 0.00 0.00 0.00 92 1013.8
20260904102003 24 163 0.0 6.4 0.00 0.00 0.00 92 1013.7
20260904101503 24 166 0.0 6.4 0.00 0.00 0.00 92 1013.6
20260904101003 24 172 0.0 3.2 0.00 0.00 0.00 92 1013.8
20260904100503 24 173 0.0 3.2 0.00 0.00 0.00 91 1013.7
20260904100003 24 173 0.0 1.6 0.00 0.00 0.00 90 1013.7
20260904095003 24 173 0.0 1.6 0.00 0.00 0.00 90 1013.6
20260904094503 24 173 0.0 1.6 0.00 0.00 0.00 90 1013.5